"Time","Value","Approval","myLocation"
"2019-09-09 00:00",43.0757,"Validated","OW380"
"2019-09-09 01:00",43.0772,"Validated","OW380"
"2019-09-09 02:00",43.0798,"Validated","OW380"
"2019-09-09 03:00",43.0818,"Validated","OW380"
"2019-09-09 04:00",43.083,"Validated","OW380"
"2019-09-09 05:00",43.0874,"Validated","OW380"
"2019-09-09 06:00",43.0928,"Validated","OW380"
"2019-09-09 07:00",43.0981,"Validated","OW380"
"2019-09-09 08:00",43.1033,"Validated","OW380"
"2019-09-09 09:00",43.1071,"Validated","OW380"
"2019-09-09 10:00",43.1088,"Validated","OW380"
"2019-09-09 11:00",43.1094,"Validated","OW380"
"2019-09-09 12:00",43.1094,"Validated","OW380"
"2019-09-09 13:00",43.1107,"Validated","OW380"
"2019-09-09 14:00",43.1114,"Validated","OW380"
"2019-09-09 15:00",43.1134,"Validated","OW380"
"2019-09-09 16:00",43.1146,"Validated","OW380"
"2019-09-09 17:00",43.1163,"Validated","OW380"
"2019-09-09 18:00",43.1195,"Validated","OW380"
"2019-09-09 19:00",43.1275,"Validated","OW380"
"2019-09-09 20:00",43.1354,"Validated","OW380"
"2019-09-09 21:00",43.1382,"Validated","OW380"
"2019-09-09 22:00",43.1417,"Validated","OW380"
"2019-09-09 23:00",43.1438,"Validated","OW380"
"2019-09-10 00:00",43.1465,"Validated","OW380"
"2019-09-10 01:00",43.1502,"Validated","OW380"
"2019-09-10 02:00",43.1514,"Validated","OW380"
"2019-09-10 03:00",43.1551,"Validated","OW380"
"2019-09-10 04:00",43.1581,"Validated","OW380"
"2019-09-10 05:00",43.1606,"Validated","OW380"
"2019-09-10 06:00",43.1661,"Validated","OW380"
"2019-09-10 07:00",43.1741,"Validated","OW380"
"2019-09-10 08:00",43.1806,"Validated","OW380"
"2019-09-10 09:00",43.1856,"Validated","OW380"
"2019-09-10 10:00",43.1893,"Validated","OW380"
"2019-09-10 11:00",43.1921,"Validated","OW380"
"2019-09-10 12:00",43.1908,"Validated","OW380"
"2019-09-10 13:00",43.1914,"Validated","OW380"
"2019-09-10 14:00",43.1901,"Validated","OW380"
"2019-09-10 15:00",43.1885,"Validated","OW380"
"2019-09-10 16:00",43.1898,"Validated","OW380"
"2019-09-10 17:00",43.1908,"Validated","OW380"
"2019-09-10 18:00",43.1973,"Validated","OW380"
"2019-09-10 19:00",43.2027,"Validated","OW380"
"2019-09-10 20:00",43.2115,"Validated","OW380"
"2019-09-10 21:00",43.2194,"Validated","OW380"
"2019-09-10 22:00",43.2236,"Validated","OW380"
"2019-09-10 23:00",43.2274,"Validated","OW380"
"2019-09-11 00:00",43.2288,"Validated","OW380"
"2019-09-11 01:00",43.2325,"Validated","OW380"
"2019-09-11 02:00",43.2357,"Validated","OW380"
"2019-09-11 03:00",43.241,"Validated","OW380"
"2019-09-11 04:00",43.2452,"Validated","OW380"
"2019-09-11 05:00",43.2489,"Validated","OW380"
"2019-09-11 06:00",43.2576,"Validated","OW380"
"2019-09-11 07:00",43.2657,"Validated","OW380"
"2019-09-11 08:00",43.2743,"Validated","OW380"
"2019-09-11 09:00",43.2815,"Validated","OW380"
"2019-09-11 10:00",43.286,"Validated","OW380"
"2019-09-11 11:00",43.2885,"Validated","OW380"
"2019-09-11 12:00",43.2926,"Validated","OW380"
"2019-09-11 13:00",43.2945,"Validated","OW380"
"2019-09-11 14:00",43.2934,"Validated","OW380"
"2019-09-11 15:00",43.2947,"Validated","OW380"
"2019-09-11 16:00",43.2963,"Validated","OW380"
"2019-09-11 17:00",43.2968,"Validated","OW380"
"2019-09-11 18:00",43.2972,"Validated","OW380"
"2019-09-11 19:00",43.3004,"Validated","OW380"
"2019-09-11 20:00",43.3052,"Validated","OW380"
"2019-09-11 21:00",43.3101,"Validated","OW380"
"2019-09-11 22:00",43.3095,"Validated","OW380"
"2019-09-11 23:00",43.3101,"Validated","OW380"
"2019-09-12 00:00",43.3103,"Validated","OW380"
"2019-09-12 01:00",43.309,"Validated","OW380"
"2019-09-12 02:00",43.3059,"Validated","OW380"
"2019-09-12 03:00",43.3024,"Validated","OW380"
"2019-09-12 04:00",43.3001,"Validated","OW380"
"2019-09-12 05:00",43.3018,"Validated","OW380"
"2019-09-12 06:00",43.3026,"Validated","OW380"
"2019-09-12 07:00",43.3055,"Validated","OW380"
"2019-09-12 08:00",43.3092,"Validated","OW380"
"2019-09-12 09:00",43.3082,"Validated","OW380"
"2019-09-12 10:00",43.3092,"Validated","OW380"
"2019-09-12 11:00",43.3096,"Validated","OW380"
"2019-09-12 12:00",43.3012,"Validated","OW380"
"2019-09-12 13:00",43.3091,"Validated","OW380"
"2019-09-12 14:00",43.3011,"Validated","OW380"
"2019-09-12 15:00",43.2992,"Validated","OW380"
"2019-09-12 16:00",43.2906,"Validated","OW380"
"2019-09-12 17:00",43.2812,"Validated","OW380"
"2019-09-12 18:00",43.2838,"Validated","OW380"
"2019-09-12 19:00",43.2884,"Validated","OW380"
"2019-09-12 20:00",43.2925,"Validated","OW380"
"2019-09-12 21:00",43.2962,"Validated","OW380"
"2019-09-12 22:00",43.2997,"Validated","OW380"
"2019-09-12 23:00",43.3015,"Validated","OW380"
"2019-09-13 00:00",43.3023,"Validated","OW380"
"2019-09-13 01:00",43.3063,"Validated","OW380"
"2019-09-13 02:00",43.3085,"Validated","OW380"
"2019-09-13 03:00",43.3109,"Validated","OW380"
"2019-09-13 04:00",43.313,"Validated","OW380"
"2019-09-13 05:00",43.3139,"Validated","OW380"
"2019-09-13 06:00",43.3186,"Validated","OW380"
"2019-09-13 07:00",43.325,"Validated","OW380"
"2019-09-13 08:00",43.3303,"Validated","OW380"
"2019-09-13 09:00",43.3338,"Validated","OW380"
"2019-09-13 10:00",43.3375,"Validated","OW380"
"2019-09-13 11:00",43.34,"Validated","OW380"
"2019-09-13 12:00",43.3418,"Validated","OW380"
"2019-09-13 13:00",43.3418,"Validated","OW380"
"2019-09-13 14:00",43.3405,"Validated","OW380"
"2019-09-13 15:00",43.3396,"Validated","OW380"
"2019-09-13 16:00",43.3364,"Validated","OW380"
"2019-09-13 17:00",43.3369,"Validated","OW380"
"2019-09-13 18:00",43.3339,"Validated","OW380"
"2019-09-13 19:00",43.3357,"Validated","OW380"
"2019-09-13 20:00",43.3402,"Validated","OW380"
"2019-09-13 21:00",43.3449,"Validated","OW380"
"2019-09-13 22:00",43.3413,"Validated","OW380"
"2019-09-13 23:00",43.3424,"Validated","OW380"
"2019-09-14 00:00",43.3434,"Validated","OW380"
"2019-09-14 01:00",43.3402,"Validated","OW380"
"2019-09-14 02:00",43.3366,"Validated","OW380"
"2019-09-14 03:00",43.333,"Validated","OW380"
"2019-09-14 04:00",43.3297,"Validated","OW380"
"2019-09-14 05:00",43.3243,"Validated","OW380"
"2019-09-14 06:00",43.3232,"Validated","OW380"
"2019-09-14 07:00",43.3232,"Validated","OW380"
"2019-09-14 08:00",43.3243,"Validated","OW380"
"2019-09-14 09:00",43.3238,"Validated","OW380"
"2019-09-14 10:00",43.3208,"Validated","OW380"
"2019-09-14 11:00",43.3168,"Validated","OW380"
"2019-09-14 12:00",43.3131,"Validated","OW380"
"2019-09-14 13:00",43.3082,"Validated","OW380"
"2019-09-14 14:00",43.3028,"Validated","OW380"
"2019-09-14 15:00",43.2993,"Validated","OW380"
"2019-09-14 16:00",43.2919,"Validated","OW380"
"2019-09-14 17:00",43.2863,"Validated","OW380"
"2019-09-14 18:00",43.2822,"Validated","OW380"
"2019-09-14 19:00",43.2828,"Validated","OW380"
"2019-09-14 20:00",43.284,"Validated","OW380"
"2019-09-14 21:00",43.2831,"Validated","OW380"
"2019-09-14 22:00",43.2823,"Validated","OW380"
"2019-09-14 23:00",43.2796,"Validated","OW380"
"2019-09-15 00:00",43.2763,"Validated","OW380"
"2019-09-15 01:00",43.2754,"Validated","OW380"
"2019-09-15 02:00",43.275,"Validated","OW380"
"2019-09-15 03:00",43.2704,"Validated","OW380"
"2019-09-15 04:00",43.2691,"Validated","OW380"
"2019-09-15 05:00",43.2676,"Validated","OW380"
"2019-09-15 06:00",43.2694,"Validated","OW380"
"2019-09-15 07:00",43.272,"Validated","OW380"
"2019-09-15 08:00",43.2763,"Validated","OW380"
"2019-09-15 09:00",43.2803,"Validated","OW380"
"2019-09-15 10:00",43.2819,"Validated","OW380"
"2019-09-15 11:00",43.2847,"Validated","OW380"
"2019-09-15 12:00",43.2877,"Validated","OW380"
"2019-09-15 13:00",43.2938,"Validated","OW380"
"2019-09-15 14:00",43.2942,"Validated","OW380"
"2019-09-15 15:00",43.2961,"Validated","OW380"
"2019-09-15 16:00",43.2981,"Validated","OW380"
"2019-09-15 17:00",43.3018,"Validated","OW380"
"2019-09-15 18:00",43.3059,"Validated","OW380"
"2019-09-15 19:00",43.3097,"Validated","OW380"
"2019-09-15 20:00",43.313,"Validated","OW380"
"2019-09-15 21:00",43.316,"Validated","OW380"
"2019-09-15 22:00",43.3185,"Validated","OW380"
"2019-09-15 23:00",43.3225,"Validated","OW380"
"2019-09-16 00:00",43.3253,"Validated","OW380"
"2019-09-16 01:00",43.3282,"Validated","OW380"
"2019-09-16 02:00",43.3306,"Validated","OW380"
"2019-09-16 03:00",43.3304,"Validated","OW380"
"2019-09-16 04:00",43.3319,"Validated","OW380"
"2019-09-16 05:00",43.3342,"Validated","OW380"
"2019-09-16 06:00",43.3388,"Validated","OW380"
"2019-09-16 07:00",43.3453,"Validated","OW380"
"2019-09-16 08:00",43.3471,"Validated","OW380"
"2019-09-16 09:00",43.3481,"Validated","OW380"
"2019-09-16 10:00",43.3496,"Validated","OW380"
"2019-09-16 11:00",43.3516,"Validated","OW380"
"2019-09-16 12:00",43.3523,"Validated","OW380"
"2019-09-16 13:00",43.3542,"Validated","OW380"
"2019-09-16 14:00",43.3526,"Validated","OW380"
"2019-09-16 15:00",43.3523,"Validated","OW380"
"2019-09-16 16:00",43.3519,"Validated","OW380"
"2019-09-16 17:00",43.3523,"Validated","OW380"
"2019-09-16 18:00",43.3529,"Validated","OW380"
"2019-09-16 19:00",43.3561,"Validated","OW380"
"2019-09-16 20:00",43.3576,"Validated","OW380"
"2019-09-16 21:00",43.3576,"Validated","OW380"
"2019-09-16 22:00",43.3591,"Validated","OW380"
"2019-09-16 23:00",43.3564,"Validated","OW380"
"2019-09-17 00:00",43.3557,"Validated","OW380"
"2019-09-17 01:00",43.3537,"Validated","OW380"
"2019-09-17 02:00",43.3527,"Validated","OW380"
"2019-09-17 03:00",43.3476,"Validated","OW380"
"2019-09-17 04:00",43.3369,"Validated","OW380"
"2019-09-17 05:00",43.3326,"Validated","OW380"
"2019-09-17 06:00",43.3304,"Validated","OW380"
"2019-09-17 07:00",43.3208,"Validated","OW380"
"2019-09-17 08:00",43.3213,"Validated","OW380"
"2019-09-17 09:00",43.3261,"Validated","OW380"
"2019-09-17 10:00",43.3313,"Validated","OW380"
"2019-09-17 11:00",43.3338,"Validated","OW380"
"2019-09-17 12:00",43.3371,"Validated","OW380"
"2019-09-17 13:00",43.3375,"Validated","OW380"
"2019-09-17 14:00",43.3381,"Validated","OW380"
"2019-09-17 15:00",43.3398,"Validated","OW380"
"2019-09-17 16:00",43.344,"Validated","OW380"
"2019-09-17 17:00",43.3462,"Validated","OW380"
"2019-09-17 18:00",43.3464,"Validated","OW380"
"2019-09-17 19:00",43.3503,"Validated","OW380"
"2019-09-17 20:00",43.3554,"Validated","OW380"
"2019-09-17 21:00",43.3605,"Validated","OW380"
"2019-09-17 22:00",43.3692,"Validated","OW380"
"2019-09-17 23:00",43.3729,"Validated","OW380"
"2019-09-18 00:00",43.3744,"Validated","OW380"
"2019-09-18 01:00",43.3792,"Validated","OW380"
"2019-09-18 02:00",43.3827,"Validated","OW380"
"2019-09-18 03:00",43.3854,"Validated","OW380"
"2019-09-18 04:00",43.3882,"Validated","OW380"
"2019-09-18 05:00",43.3905,"Validated","OW380"
"2019-09-18 06:00",43.3962,"Validated","OW380"
"2019-09-18 07:00",43.4014,"Validated","OW380"
"2019-09-18 08:00",43.4103,"Validated","OW380"
"2019-09-18 09:00",43.4168,"Validated","OW380"
"2019-09-18 10:00",43.4195,"Validated","OW380"
"2019-09-18 11:00",43.4221,"Validated","OW380"
"2019-09-18 12:00",43.4244,"Validated","OW380"
"2019-09-18 13:00",43.426,"Validated","OW380"
"2019-09-18 14:00",43.4275,"Validated","OW380"
"2019-09-18 15:00",43.4286,"Validated","OW380"
"2019-09-18 16:00",43.4318,"Validated","OW380"
"2019-09-18 17:00",43.436,"Validated","OW380"
"2019-09-18 18:00",43.4363,"Validated","OW380"
"2019-09-18 19:00",43.4399,"Validated","OW380"
"2019-09-18 20:00",43.4451,"Validated","OW380"
"2019-09-18 21:00",43.4517,"Validated","OW380"
"2019-09-18 22:00",43.4551,"Validated","OW380"
"2019-09-18 23:00",43.4569,"Validated","OW380"
"2019-09-19 00:00",43.4602,"Validated","OW380"
"2019-09-19 01:00",43.4653,"Validated","OW380"
"2019-09-19 02:00",43.4695,"Validated","OW380"
"2019-09-19 03:00",43.4709,"Validated","OW380"
"2019-09-19 04:00",43.4697,"Validated","OW380"
"2019-09-19 05:00",43.4715,"Validated","OW380"
"2019-09-19 06:00",43.4757,"Validated","OW380"
"2019-09-19 07:00",43.4801,"Validated","OW380"
"2019-09-19 08:00",43.4842,"Validated","OW380"
"2019-09-19 09:00",43.4852,"Validated","OW380"
"2019-09-19 10:00",43.4861,"Validated","OW380"
"2019-09-19 11:00",43.4853,"Validated","OW380"
"2019-09-19 12:00",43.4842,"Validated","OW380"
"2019-09-19 13:00",43.4839,"Validated","OW380"
"2019-09-19 14:00",43.4829,"Validated","OW380"
"2019-09-19 15:00",43.4844,"Validated","OW380"
"2019-09-19 16:00",43.4819,"Validated","OW380"
"2019-09-19 17:00",43.4795,"Validated","OW380"
"2019-09-19 18:00",43.4798,"Validated","OW380"
"2019-09-19 19:00",43.4795,"Validated","OW380"
"2019-09-19 20:00",43.4836,"Validated","OW380"
"2019-09-19 21:00",43.4829,"Validated","OW380"
"2019-09-19 22:00",43.4811,"Validated","OW380"
"2019-09-19 23:00",43.4826,"Validated","OW380"
"2019-09-20 00:00",43.4819,"Validated","OW380"
"2019-09-20 01:00",43.4823,"Validated","OW380"
"2019-09-20 02:00",43.4811,"Validated","OW380"
"2019-09-20 03:00",43.4821,"Validated","OW380"
"2019-09-20 04:00",43.4822,"Validated","OW380"
"2019-09-20 05:00",43.4838,"Validated","OW380"
"2019-09-20 06:00",43.4841,"Validated","OW380"
"2019-09-20 07:00",43.4863,"Validated","OW380"
"2019-09-20 08:00",43.4904,"Validated","OW380"
"2019-09-20 09:00",43.4942,"Validated","OW380"
"2019-09-20 10:00",43.4955,"Validated","OW380"
"2019-09-20 11:00",43.4962,"Validated","OW380"
"2019-09-20 12:00",43.4979,"Validated","OW380"
"2019-09-20 13:00",43.4983,"Validated","OW380"
"2019-09-20 14:00",43.4971,"Validated","OW380"
"2019-09-20 15:00",43.4979,"Validated","OW380"
"2019-09-20 16:00",43.4981,"Validated","OW380"
"2019-09-20 17:00",43.4958,"Validated","OW380"
"2019-09-20 18:00",43.4947,"Validated","OW380"
"2019-09-20 19:00",43.4954,"Validated","OW380"
"2019-09-20 20:00",43.4957,"Validated","OW380"
"2019-09-20 21:00",43.501,"Validated","OW380"
"2019-09-20 22:00",43.5034,"Validated","OW380"
"2019-09-20 23:00",43.5052,"Validated","OW380"
"2019-09-21 00:00",43.5048,"Validated","OW380"
"2019-09-21 01:00",43.5091,"Validated","OW380"
"2019-09-21 02:00",43.5076,"Validated","OW380"
"2019-09-21 03:00",43.5062,"Validated","OW380"
"2019-09-21 04:00",43.5031,"Validated","OW380"
"2019-09-21 05:00",43.5034,"Validated","OW380"
"2019-09-21 06:00",43.5035,"Validated","OW380"
"2019-09-21 07:00",43.5031,"Validated","OW380"
"2019-09-21 08:00",43.5016,"Validated","OW380"
"2019-09-21 09:00",43.5024,"Validated","OW380"
"2019-09-21 10:00",43.5018,"Validated","OW380"
"2019-09-21 11:00",43.4999,"Validated","OW380"
"2019-09-21 12:00",43.4975,"Validated","OW380"
"2019-09-21 13:00",43.4918,"Validated","OW380"
"2019-09-21 14:00",43.4859,"Validated","OW380"
"2019-09-21 15:00",43.4789,"Validated","OW380"
"2019-09-21 16:00",43.4752,"Validated","OW380"
"2019-09-21 17:00",43.4699,"Validated","OW380"
"2019-09-21 18:00",43.4679,"Validated","OW380"
"2019-09-21 19:00",43.4623,"Validated","OW380"
"2019-09-21 20:00",43.459,"Validated","OW380"
"2019-09-21 21:00",43.4576,"Validated","OW380"
"2019-09-21 22:00",43.4536,"Validated","OW380"
"2019-09-21 23:00",43.448,"Validated","OW380"
"2019-09-22 00:00",43.4433,"Validated","OW380"
"2019-09-22 01:00",43.4376,"Validated","OW380"
"2019-09-22 02:00",43.4298,"Validated","OW380"
"2019-09-22 03:00",43.4241,"Validated","OW380"
"2019-09-22 04:00",43.4202,"Validated","OW380"
"2019-09-22 05:00",43.4166,"Validated","OW380"
"2019-09-22 06:00",43.4132,"Validated","OW380"
"2019-09-22 07:00",43.4104,"Validated","OW380"
"2019-09-22 08:00",43.4125,"Validated","OW380"
"2019-09-22 09:00",43.412,"Validated","OW380"
"2019-09-22 10:00",43.4149,"Validated","OW380"
"2019-09-22 11:00",43.4122,"Validated","OW380"
"2019-09-22 12:00",43.4107,"Validated","OW380"
"2019-09-22 13:00",43.4091,"Validated","OW380"
"2019-09-22 14:00",43.4075,"Validated","OW380"
"2019-09-22 15:00",43.4086,"Validated","OW380"
"2019-09-22 16:00",43.4138,"Validated","OW380"
"2019-09-22 17:00",43.4197,"Validated","OW380"
"2019-09-22 18:00",43.4253,"Validated","OW380"
"2019-09-22 19:00",43.4327,"Validated","OW380"
"2019-09-22 20:00",43.437,"Validated","OW380"
"2019-09-22 21:00",43.4433,"Validated","OW380"
"2019-09-22 22:00",43.4486,"Validated","OW380"
"2019-09-22 23:00",43.451,"Validated","OW380"
"2019-09-23 00:00",43.4529,"Validated","OW380"
"2019-09-23 01:00",43.4559,"Validated","OW380"
"2019-09-23 02:00",43.459,"Validated","OW380"
"2019-09-23 03:00",43.4652,"Validated","OW380"
"2019-09-23 04:00",43.4713,"Validated","OW380"
"2019-09-23 05:00",43.4729,"Validated","OW380"
"2019-09-23 06:00",43.4814,"Validated","OW380"
"2019-09-23 07:00",43.4834,"Validated","OW380"
"2019-09-23 08:00",43.4903,"Validated","OW380"
"2019-09-23 09:00",43.4985,"Validated","OW380"
"2019-09-23 10:00",43.5031,"Validated","OW380"
"2019-09-23 11:00",43.5024,"Validated","OW380"
"2019-09-23 12:00",43.499,"Validated","OW380"
"2019-09-23 13:00",43.4977,"Validated","OW380"
"2019-09-23 14:00",43.4978,"Validated","OW380"
"2019-09-23 15:00",43.4957,"Validated","OW380"
"2019-09-23 16:00",43.4899,"Validated","OW380"
"2019-09-23 17:00",43.4845,"Validated","OW380"
"2019-09-23 18:00",43.481,"Validated","OW380"
"2019-09-23 19:00",43.4784,"Validated","OW380"
"2019-09-23 20:00",43.477,"Validated","OW380"
"2019-09-23 21:00",43.4756,"Validated","OW380"
"2019-09-23 22:00",43.4749,"Validated","OW380"
"2019-09-23 23:00",43.4769,"Validated","OW380"
"2019-09-24 00:00",43.475,"Validated","OW380"
"2019-09-24 01:00",43.4735,"Validated","OW380"
"2019-09-24 02:00",43.4753,"Validated","OW380"
"2019-09-24 03:00",43.4776,"Validated","OW380"
"2019-09-24 04:00",43.4803,"Validated","OW380"
"2019-09-24 05:00",43.4855,"Validated","OW380"
"2019-09-24 06:00",43.4861,"Validated","OW380"
"2019-09-24 07:00",43.4899,"Validated","OW380"
"2019-09-24 08:00",43.4924,"Validated","OW380"
"2019-09-24 09:00",43.4995,"Validated","OW380"
"2019-09-24 10:00",43.4995,"Validated","OW380"
"2019-09-24 11:00",43.501,"Validated","OW380"
"2019-09-24 12:00",43.5014,"Validated","OW380"
"2019-09-24 13:00",43.496,"Validated","OW380"
"2019-09-24 14:00",43.4929,"Validated","OW380"
"2019-09-24 15:00",43.4898,"Validated","OW380"
"2019-09-24 16:00",43.4846,"Validated","OW380"
"2019-09-24 17:00",43.4818,"Validated","OW380"
"2019-09-24 18:00",43.4826,"Validated","OW380"
"2019-09-24 19:00",43.4812,"Validated","OW380"
"2019-09-24 20:00",43.4848,"Validated","OW380"
"2019-09-24 21:00",43.4872,"Validated","OW380"
"2019-09-24 22:00",43.4883,"Validated","OW380"
"2019-09-24 23:00",43.4912,"Validated","OW380"
"2019-09-25 00:00",43.4896,"Validated","OW380"
"2019-09-25 01:00",43.489,"Validated","OW380"
"2019-09-25 02:00",43.4878,"Validated","OW380"
"2019-09-25 03:00",43.4841,"Validated","OW380"
"2019-09-25 04:00",43.4847,"Validated","OW380"
"2019-09-25 05:00",43.485,"Validated","OW380"
"2019-09-25 06:00",43.4843,"Validated","OW380"
"2019-09-25 07:00",43.4881,"Validated","OW380"
"2019-09-25 08:00",43.4901,"Validated","OW380"
"2019-09-25 09:00",43.4916,"Validated","OW380"
"2019-09-25 10:00",43.4858,"Validated","OW380"
"2019-09-25 11:00",43.4829,"Validated","OW380"
"2019-09-25 12:00",43.4783,"Validated","OW380"
"2019-09-25 13:00",43.4709,"Validated","OW380"
"2019-09-25 14:00",43.4584,"Validated","OW380"
"2019-09-25 15:00",43.4491,"Validated","OW380"
"2019-09-25 16:00",43.4388,"Validated","OW380"
"2019-09-25 17:00",43.4295,"Validated","OW380"
"2019-09-25 18:00",43.4223,"Validated","OW380"
"2019-09-25 19:00",43.4125,"Validated","OW380"
"2019-09-25 20:00",43.4047,"Validated","OW380"
"2019-09-25 21:00",43.393,"Validated","OW380"
"2019-09-25 22:00",43.3846,"Validated","OW380"
"2019-09-25 23:00",43.3667,"Validated","OW380"
"2019-09-26 00:00",43.3527,"Validated","OW380"
"2019-09-26 01:00",43.3411,"Validated","OW380"
"2019-09-26 02:00",43.3291,"Validated","OW380"
"2019-09-26 03:00",43.3168,"Validated","OW380"
"2019-09-26 04:00",43.3164,"Validated","OW380"
"2019-09-26 05:00",43.3231,"Validated","OW380"
"2019-09-26 06:00",43.3322,"Validated","OW380"
"2019-09-26 07:00",43.3352,"Validated","OW380"
"2019-09-26 08:00",43.3409,"Validated","OW380"
"2019-09-26 09:00",43.3465,"Validated","OW380"
"2019-09-26 10:00",43.348,"Validated","OW380"
"2019-09-26 11:00",43.3479,"Validated","OW380"
"2019-09-26 12:00",43.3497,"Validated","OW380"
"2019-09-26 13:00",43.351,"Validated","OW380"
"2019-09-26 14:00",43.345,"Validated","OW380"
"2019-09-26 15:00",43.3403,"Validated","OW380"
"2019-09-26 16:00",43.3376,"Validated","OW380"
"2019-09-26 17:00",43.3372,"Validated","OW380"
"2019-09-26 18:00",43.337,"Validated","OW380"
"2019-09-26 19:00",43.3378,"Validated","OW380"
"2019-09-26 20:00",43.3389,"Validated","OW380"
"2019-09-26 21:00",43.3403,"Validated","OW380"
"2019-09-26 22:00",43.3377,"Validated","OW380"
"2019-09-26 23:00",43.3343,"Validated","OW380"
"2019-09-27 00:00",43.332,"Validated","OW380"
"2019-09-27 01:00",43.3299,"Validated","OW380"
"2019-09-27 02:00",43.326,"Validated","OW380"
"2019-09-27 03:00",43.3214,"Validated","OW380"
"2019-09-27 04:00",43.3171,"Validated","OW380"
"2019-09-27 05:00",43.3132,"Validated","OW380"
"2019-09-27 06:00",43.3071,"Validated","OW380"
"2019-09-27 07:00",43.3041,"Validated","OW380"
"2019-09-27 08:00",43.3038,"Validated","OW380"
"2019-09-27 09:00",43.3031,"Validated","OW380"
"2019-09-27 10:00",43.3003,"Validated","OW380"
"2019-09-27 11:00",43.2958,"Validated","OW380"
"2019-09-27 12:00",43.2865,"Validated","OW380"
"2019-09-27 13:00",43.2767,"Validated","OW380"
"2019-09-27 14:00",43.2705,"Validated","OW380"
"2019-09-27 15:00",43.2705,"Validated","OW380"
"2019-09-27 16:00",43.2695,"Validated","OW380"
"2019-09-27 17:00",43.2711,"Validated","OW380"
"2019-09-27 18:00",43.2661,"Validated","OW380"
"2019-09-27 19:00",43.2611,"Validated","OW380"
"2019-09-27 20:00",43.2603,"Validated","OW380"
"2019-09-27 21:00",43.254,"Validated","OW380"
"2019-09-27 22:00",43.2555,"Validated","OW380"
"2019-09-27 23:00",43.2531,"Validated","OW380"
"2019-09-28 00:00",43.2506,"Validated","OW380"
"2019-09-28 01:00",43.2487,"Validated","OW380"
"2019-09-28 02:00",43.2455,"Validated","OW380"
"2019-09-28 03:00",43.241,"Validated","OW380"
"2019-09-28 04:00",43.2367,"Validated","OW380"
"2019-09-28 05:00",43.2385,"Validated","OW380"
"2019-09-28 06:00",43.2416,"Validated","OW380"
"2019-09-28 07:00",43.2422,"Validated","OW380"
"2019-09-28 08:00",43.2475,"Validated","OW380"
"2019-09-28 09:00",43.2557,"Validated","OW380"
"2019-09-28 10:00",43.2572,"Validated","OW380"
"2019-09-28 11:00",43.2539,"Validated","OW380"
"2019-09-28 12:00",43.2512,"Validated","OW380"
"2019-09-28 13:00",43.2461,"Validated","OW380"
"2019-09-28 14:00",43.2397,"Validated","OW380"
"2019-09-28 15:00",43.2357,"Validated","OW380"
"2019-09-28 16:00",43.2342,"Validated","OW380"
"2019-09-28 17:00",43.2327,"Validated","OW380"
"2019-09-28 18:00",43.2317,"Validated","OW380"
"2019-09-28 19:00",43.2307,"Validated","OW380"
"2019-09-28 20:00",43.2318,"Validated","OW380"
"2019-09-28 21:00",43.2317,"Validated","OW380"
"2019-09-28 22:00",43.2279,"Validated","OW380"
"2019-09-28 23:00",43.2244,"Validated","OW380"
"2019-09-29 00:00",43.2231,"Validated","OW380"
"2019-09-29 01:00",43.221,"Validated","OW380"
"2019-09-29 02:00",43.2159,"Validated","OW380"
"2019-09-29 03:00",43.2117,"Validated","OW380"
"2019-09-29 04:00",43.2092,"Validated","OW380"
"2019-09-29 05:00",43.2091,"Validated","OW380"
"2019-09-29 06:00",43.2093,"Validated","OW380"
"2019-09-29 07:00",43.2108,"Validated","OW380"
"2019-09-29 08:00",43.2132,"Validated","OW380"
"2019-09-29 09:00",43.2181,"Validated","OW380"
"2019-09-29 10:00",43.2216,"Validated","OW380"
"2019-09-29 11:00",43.2249,"Validated","OW380"
"2019-09-29 12:00",43.2253,"Validated","OW380"
"2019-09-29 13:00",43.2219,"Validated","OW380"
"2019-09-29 14:00",43.2199,"Validated","OW380"
"2019-09-29 15:00",43.218,"Validated","OW380"
"2019-09-29 16:00",43.2162,"Validated","OW380"
"2019-09-29 17:00",43.2175,"Validated","OW380"
"2019-09-29 18:00",43.2144,"Validated","OW380"
"2019-09-29 19:00",43.2145,"Validated","OW380"